• In Österreich
  • Länderverzeichnis
  • Für 7 Tage
  • Wassertemperatur
  • Satellitenkarten
  • Wetterkarte
  • News
  • Widgets
  • user-avatar
    Anmelden

    Stündliche Wetter Andora

    Heute, 15 November, Donnerstag

    Zeit Temperatur Niederschläge Wind Luftdruck Luftfeuchtigkeit
    00:00 +3°C° 0 mm 2 m/S 626 mmHg 78%
    01:00 +3°C° 0 mm 2 m/S 626 mmHg 79%
    02:00 +3°C° 0 mm 2 m/S 625 mmHg 79%
    03:00 +3°C° 0 mm 2 m/S 625 mmHg 80%
    04:00 +3°C° 0 mm 2 m/S 625 mmHg 81%
    05:00 +3°C° 0 mm 2 m/S 625 mmHg 82%
    06:00 +3°C° 0 mm 2 m/S 625 mmHg 83%
    07:00 +4°C° 0 mm 2 m/S 626 mmHg 79%
    08:00 +6°C° 0 mm 2 m/S 626 mmHg 75%
    09:00 +7°C° 0 mm 2 m/S 627 mmHg 70%
    10:00 +8°C° 0 mm 2 m/S 627 mmHg 67%
    11:00 +9°C° 0 mm 2 m/S 628 mmHg 65%
    12:00 +10°C° 0 mm 2 m/S 628 mmHg 62%
    13:00 +10°C° 0.1 mm 2 m/S 628 mmHg 65%
    14:00 +10°C° 0.1 mm 2 m/S 627 mmHg 69%
    15:00 +9°C° 0.1 mm 2 m/S 627 mmHg 72%
    16:00 +9°C° 0.1 mm 1 m/S 627 mmHg 78%
    17:00 +7°C° 0.1 mm 1 m/S 626 mmHg 85%
    18:00 +6°C° 0.1 mm 1 m/S 626 mmHg 91%
    19:00 +6°C° 0 mm 1 m/S 626 mmHg 91%
    20:00 +5°C° 0 mm 1 m/S 626 mmHg 91%
    21:00 +5°C° 0 mm 1 m/S 626 mmHg 90%
    22:00 +5°C° 0 mm 1 m/S 626 mmHg 89%
    23:00 +5°C° 0 mm 1 m/S 626 mmHg 88%

    Morgen, 16 November, Freitag

    Zeit Temperatur Niederschläge Wind Luftdruck Luftfeuchtigkeit
    00:00 +5°C° 0 mm 1 m/S 626 mmHg 88%
    01:00 +5°C° 0 mm 1 m/S 626 mmHg 87%
    02:00 +4°C° 0 mm 1 m/S 626 mmHg 87%
    03:00 +4°C° 0 mm 1 m/S 626 mmHg 86%
    04:00 +4°C° 0 mm 1 m/S 626 mmHg 86%
    05:00 +4°C° 0 mm 1 m/S 625 mmHg 86%
    06:00 +4°C° 0 mm 1 m/S 625 mmHg 85%
    07:00 +5°C° 0 mm 1 m/S 626 mmHg 81%
    08:00 +7°C° 0 mm 1 m/S 627 mmHg 77%
    09:00 +8°C° 0 mm 1 m/S 627 mmHg 72%
    10:00 +9°C° 0 mm 1 m/S 628 mmHg 70%
    11:00 +9°C° 0 mm 2 m/S 628 mmHg 67%
    12:00 +10°C° 0 mm 2 m/S 628 mmHg 65%
    13:00 +9°C° 0 mm 2 m/S 628 mmHg 68%
    14:00 +9°C° 0 mm 2 m/S 627 mmHg 71%
    15:00 +8°C° 0 mm 2 m/S 627 mmHg 75%
    16:00 +8°C° 0 mm 1 m/S 626 mmHg 81%
    17:00 +7°C° 0 mm 1 m/S 626 mmHg 87%
    18:00 +6°C° 0 mm 1 m/S 626 mmHg 93%
    19:00 +5°C° 0 mm 1 m/S 626 mmHg 93%
    20:00 +5°C° 0 mm 1 m/S 626 mmHg 93%
    21:00 +5°C° 0 mm 1 m/S 626 mmHg 93%
    22:00 +5°C° 0 mm 1 m/S 625 mmHg 93%
    23:00 +5°C° 0 mm 1 m/S 625 mmHg 93%

    übermorgen, 17 November, Samstag

    Zeit Temperatur Niederschläge Wind Luftdruck Luftfeuchtigkeit
    00:00 +5°C° 0 mm 1 m/S 625 mmHg 93%
    01:00 +4°C° 0 mm 1 m/S 625 mmHg 92%
    02:00 +4°C° 0 mm 1 m/S 625 mmHg 92%
    03:00 +4°C° 0 mm 1 m/S 625 mmHg 91%
    04:00 +4°C° 0 mm 1 m/S 624 mmHg 90%
    05:00 +4°C° 0 mm 1 m/S 624 mmHg 90%
    06:00 +4°C° 0 mm 1 m/S 624 mmHg 89%
    07:00 +4°C° 0 mm 2 m/S 624 mmHg 87%
    08:00 +4°C° 0 mm 2 m/S 624 mmHg 84%
    09:00 +5°C° 0 mm 2 m/S 625 mmHg 81%
    10:00 +5°C° 0.1 mm 2 m/S 625 mmHg 79%
    11:00 +5°C° 0.1 mm 2 m/S 625 mmHg 78%
    12:00 +5°C° 0.1 mm 2 m/S 624 mmHg 76%
    13:00 +5°C° 0.3 mm 2 m/S 624 mmHg 78%
    14:00 +3°C° 0.3 mm 3 m/S 623 mmHg 81%
    15:00 +3°C° 0.3 mm 3 m/S 623 mmHg 83%
    16:00 +2°C° 0.6 mm 3 m/S 623 mmHg 85%
    17:00 +2°C° 0.6 mm 3 m/S 622 mmHg 86%
    18:00 +1°C° 0.6 mm 3 m/S 622 mmHg 88%
    19:00 +1°C° 0.5 mm 3 m/S 622 mmHg 88%
    20:00 +1°C° 0.5 mm 3 m/S 622 mmHg 88%
    21:00 0°C° 0.5 mm 3 m/S 622 mmHg 88%
    22:00 0°C° 0.6 mm 3 m/S 621 mmHg 88%
    23:00 0°C° 0.6 mm 3 m/S 621 mmHg 88%

    18 November, Sonntag

    Zeit Temperatur Niederschläge Wind Luftdruck Luftfeuchtigkeit
    00:00 +1°C° 0.6 mm 2 m/S 621 mmHg 88%
    01:00 +1°C° 0.5 mm 2 m/S 620 mmHg 88%
    02:00 -1°C° 0.5 mm 2 m/S 620 mmHg 88%
    03:00 -1°C° 0.5 mm 2 m/S 620 mmHg 88%
    04:00 -1°C° 0.7 mm 2 m/S 619 mmHg 88%
    05:00 -1°C° 0.7 mm 2 m/S 619 mmHg 88%
    06:00 -1°C° 0.7 mm 2 m/S 619 mmHg 88%
    07:00 0°C° 0.6 mm 3 m/S 619 mmHg 87%
    08:00 0°C° 0.6 mm 3 m/S 620 mmHg 86%
    09:00 +1°C° 0.6 mm 3 m/S 620 mmHg 85%
    10:00 0°C° 0.4 mm 4 m/S 620 mmHg 84%
    11:00 +1°C° 0.4 mm 4 m/S 620 mmHg 83%
    12:00 +1°C° 0.4 mm 4 m/S 620 mmHg 81%
    13:00 +1°C° 0.4 mm 4 m/S 620 mmHg 82%
    14:00 +1°C° 0.4 mm 4 m/S 619 mmHg 82%
    15:00 +1°C° 0.4 mm 4 m/S 619 mmHg 83%
    16:00 +1°C° 0.4 mm 3 m/S 619 mmHg 85%
    17:00 +1°C° 0.4 mm 3 m/S 618 mmHg 87%
    18:00 0°C° 0.4 mm 3 m/S 618 mmHg 89%
    19:00 0°C° 0.2 mm 3 m/S 618 mmHg 89%
    20:00 +1°C° 0.2 mm 2 m/S 618 mmHg 89%
    21:00 -1°C° 0.2 mm 2 m/S 618 mmHg 89%
    22:00 -1°C° 0.1 mm 2 m/S 617 mmHg 89%
    23:00 -1°C° 0.1 mm 2 m/S 617 mmHg 89%

    19 November, Montag

    Zeit Temperatur Niederschläge Wind Luftdruck Luftfeuchtigkeit
    00:00 +1°C° 0.1 mm 2 m/S 617 mmHg 88%
    01:00 +1°C° 0.1 mm 2 m/S 616 mmHg 88%
    02:00 +1°C° 0.1 mm 2 m/S 616 mmHg 87%
    03:00 +1°C° 0.1 mm 2 m/S 616 mmHg 86%
    04:00 +1°C° 0.1 mm 2 m/S 615 mmHg 86%
    05:00 +1°C° 0.1 mm 2 m/S 615 mmHg 85%
    06:00 +1°C° 0.1 mm 2 m/S 615 mmHg 85%
    07:00 +2°C° 0.2 mm 2 m/S 615 mmHg 83%
    08:00 +3°C° 0.2 mm 2 m/S 616 mmHg 82%
    09:00 +4°C° 0.2 mm 2 m/S 616 mmHg 80%
    10:00 +4°C° 0.4 mm 2 m/S 616 mmHg 79%
    11:00 +5°C° 0.4 mm 2 m/S 616 mmHg 77%
    12:00 +6°C° 0.4 mm 2 m/S 616 mmHg 76%
    13:00 +5°C° 0.3 mm 2 m/S 615 mmHg 77%
    14:00 +5°C° 0.3 mm 2 m/S 615 mmHg 79%
    15:00 +5°C° 0.3 mm 2 m/S 615 mmHg 80%
    16:00 +5°C° 0.1 mm 1 m/S 614 mmHg 84%
    17:00 +3°C° 0.1 mm 1 m/S 614 mmHg 88%
    18:00 +2°C° 0.1 mm 1 m/S 613 mmHg 91%
    19:00 +2°C° 0 mm 1 m/S 613 mmHg 91%
    20:00 +2°C° 0 mm 1 m/S 613 mmHg 91%
    21:00 +2°C° 0 mm 1 m/S 613 mmHg 91%
    22:00 +1°C° 0 mm 1 m/S 613 mmHg 90%
    23:00 +1°C° 0 mm 1 m/S 613 mmHg 90%

    20 November, Dienstag

    Zeit Temperatur Niederschläge Wind Luftdruck Luftfeuchtigkeit
    00:00 +1°C° 0 mm 1 m/S 613 mmHg 90%
    01:00 +1°C° 0 mm 1 m/S 612 mmHg 90%
    02:00 +1°C° 0 mm 1 m/S 612 mmHg 89%
    03:00 +1°C° 0 mm 1 m/S 612 mmHg 89%
    04:00 0°C° 0 mm 1 m/S 612 mmHg 89%
    05:00 0°C° 0 mm 1 m/S 612 mmHg 89%
    06:00 0°C° 0 mm 1 m/S 611 mmHg 89%
    07:00 +1°C° 0 mm 1 m/S 612 mmHg 87%
    08:00 +2°C° 0 mm 1 m/S 613 mmHg 84%
    09:00 +3°C° 0 mm 1 m/S 613 mmHg 81%
    10:00 +4°C° 0 mm 1 m/S 613 mmHg 80%
    11:00 +5°C° 0 mm 1 m/S 614 mmHg 78%
    12:00 +4°C° 0 mm 2 m/S 614 mmHg 76%
    13:00 +4°C° 0 mm 2 m/S 614 mmHg 78%
    14:00 +4°C° 0 mm 2 m/S 613 mmHg 80%
    15:00 +3°C° 0 mm 2 m/S 613 mmHg 82%
    16:00 +2°C° 0 mm 2 m/S 613 mmHg 85%
    17:00 +2°C° 0 mm 2 m/S 613 mmHg 89%
    18:00 +2°C° 0 mm 1 m/S 612 mmHg 93%
    19:00 +1°C° 0.2 mm 1 m/S 613 mmHg 93%
    20:00 +1°C° 0.2 mm 1 m/S 613 mmHg 93%
    21:00 +1°C° 0.2 mm 1 m/S 613 mmHg 92%
    22:00 -1°C° 0.3 mm 2 m/S 612 mmHg 92%
    23:00 -1°C° 0.3 mm 2 m/S 612 mmHg 92%
    Mehr zeigen